DW3979 Weather Reports


time (UTC)temp
C
wind
direction
speed
KPH
gust
KPH
rain 1hr
cm
rain 24hr
cm
rain mn
cm
humidity
%
barometer
mb
20260502130432 12 260 1.6 4.8 0.00 0.00 0.00 30 1019.3
20260502123424 12 254 1.6 4.8 0.00 0.00 0.00 29 1019.1
20260502122924 12 255 1.6 4.8 0.00 0.00 0.00 29 1019.0
20260502122422 12 260 1.6 4.8 0.00 0.00 0.00 29 1019.0
20260502121922 12 259 1.6 3.2 0.00 0.00 0.00 29 1018.9
20260502121422 13 257 1.6 3.2 0.00 0.00 0.00 29 1018.9
20260502120923 13 260 1.6 4.8 0.00 0.00 0.00 29 1018.9
20260502120422 12 250 1.6 6.4 0.00 0.00 0.00 30 1018.9
20260502115919 12 274 1.6 4.8 0.00 0.00 0.00 30 1018.9
20260502115418 13 262 1.6 3.2 0.00 0.00 0.00 30 1018.9
20260502114918 13 260 1.6 4.8 0.00 0.00 0.00 30 1018.9
20260502114418 13 254 1.6 4.8 0.00 0.00 0.00 30 1019.0
20260502113421 13 257 1.6 4.8 0.00 0.00 0.00 31 1018.9
20260502112916 13 258 3.2 4.8 0.00 0.00 0.00 31 1018.9
20260502112417 13 274 3.2 6.4 0.00 0.00 0.00 31 1018.9
20260502111914 13 260 3.2 6.4 0.00 0.00 0.00 31 1018.9
20260502110913 13 247 1.6 4.8 0.00 0.00 0.00 31 1018.8
20260502110410 13 260 1.6 4.8 0.00 0.00 0.00 31 1018.9
20260502105910 13 261 1.6 4.8 0.00 0.00 0.00 31 1018.9
20260502105411 13 259 1.6 3.2 0.00 0.00 0.00 31 1018.9
20260502104910 13 285 1.6 6.4 0.00 0.00 0.00 31 1018.8
20260502104412 13 256 1.6 6.4 0.00 0.00 0.00 31 1018.6
20260502103908 13 312 1.6 4.8 0.00 0.00 0.00 30 1018.8
20260502102408 13 259 1.6 4.8 0.00 0.00 0.00 30 1018.5
20260502101908 13 263 1.6 4.8 0.00 0.00 0.00 30 1018.6
20260502101407 14 257 1.6 4.8 0.00 0.00 0.00 30 1018.5
20260502100906 14 261 1.6 4.8 0.00 0.00 0.00 30 1018.4
20260502100404 14 265 1.6 3.2 0.00 0.00 0.00 30 1018.4
20260502091352 15 258 1.6 3.2 0.00 0.00 0.00 28 1018.6
20260502090850 15 250 1.6 4.8 0.00 0.00 0.00 28 1018.6
20260502090348 15 250 0.0 4.8 0.00 0.00 0.00 28 1018.8
20260502071332 15 243 1.6 4.8 0.00 0.00 0.00 25 1018.9
20260502070835 15 254 1.6 4.8 0.00 0.00 0.00 26 1018.9
20260502070331 15 263 1.6 4.8 0.00 0.00 0.00 26 1018.8
20260502065828 15 234 1.6 4.8 0.00 0.00 0.00 26 1018.8
20260502065327 15 252 1.6 4.8 0.00 0.00 0.00 26 1018.6
20260502064827 15 244 1.6 4.8 0.00 0.00 0.00 26 1018.8
20260502064325 15 252 1.6 4.8 0.00 0.00 0.00 25 1018.8
20260502063823 15 260 1.6 4.8 0.00 0.00 0.00 25 1018.6
20260502063322 16 253 1.6 4.8 0.00 0.00 0.00 25 1018.8
20260502062817 16 261 0.0 3.2 0.00 0.00 0.00 25 1018.8
20260502062317 16 259 1.6 3.2 0.00 0.00 0.00 25 1018.6
20260502061811 16 255 1.6 3.2 0.00 0.00 0.00 24 1018.6
20260502060809 16 259 0.0 4.8 0.00 0.00 0.00 24 1018.5
20260502060308 16 257 1.6 4.8 0.00 0.00 0.00 24 1018.4
20260502055807 17 258 0.0 3.2 0.00 0.00 0.00 24 1018.5
20260502055306 17 261 0.0 1.6 0.00 0.00 0.00 23 1018.4
20260502054806 17 283 0.0 0.0 0.00 0.00 0.00 23 1018.4
20260502054305 17 284 0.0 3.2 0.00 0.00 0.00 23 1018.4
20260502053803 17 284 0.0 4.8 0.00 0.00 0.00 23 1018.4
20260502053301 17 241 0.0 4.8 0.00 0.00 0.00 23 1018.4
20260502052801 17 323 0.0 4.8 0.00 0.00 0.00 23 1018.4
20260502052259 17 300 0.0 4.8 0.00 0.00 0.00 23 1018.4
20260502051758 18 309 0.0 4.8 0.00 0.00 0.00 23 1018.4
20260502051255 18 333 0.0 0.0 0.00 0.00 0.00 23 1018.4
20260502050755 18 336 0.0 3.2 0.00 0.00 0.00 23 1018.5
20260502050258 18 336 1.6 9.7 0.00 0.00 0.00 23 1018.4
20260502044755 18 346 0.0 4.8 0.00 0.00 0.00 23 1018.2
20260502044253 18 338 0.0 3.2 0.00 0.00 0.00 23 1018.2
20260502043752 18 329 0.0 3.2 0.00 0.00 0.00 22 1018.1
20260502043253 18 323 0.0 0.0 0.00 0.00 0.00 22 1018.1
20260502042753 18 323 0.0 0.0 0.00 0.00 0.00 22 1018.0
20260502041753 18 323 1.6 4.8 0.00 0.00 0.00 22 1017.7
20260502041254 18 331 0.0 3.2 0.00 0.00 0.00 22 1017.6
20260502040753 19 335 1.6 4.8 0.00 0.00 0.00 21 1017.5
20260502040253 19 350 1.6 6.4 0.00 0.00 0.00 21 1017.3
20260502035753 19 327 1.6 11.3 0.00 0.00 0.00 21 1017.2
20260502034753 19 326 0.0 4.8 0.00 0.00 0.00 20 1016.9
20260502034252 20 33 1.6 6.4 0.00 0.00 0.00 20 1016.9
20260502033751 20 45 1.6 6.4 0.00 0.00 0.00 19 1016.7
20260502032748 20 344 3.2 14.5 0.00 0.00 0.00 19 1016.4
20260502031741 20 327 0.0 4.8 0.00 0.00 0.00 18 1016.0
20260502030739 20 319 1.6 8.0 0.00 0.00 0.00 18 1015.7
20260502030239 20 330 0.0 8.0 0.00 0.00 0.00 17 1015.5
20260502025739 20 286 1.6 4.8 0.00 0.00 0.00 17 1015.2
20260502025237 21 315 1.6 4.8 0.00 0.00 0.00 17 1015.1
20260502024735 21 296 3.2 9.7 0.00 0.00 0.00 16 1015.1
20260502024235 21 334 3.2 9.7 0.00 0.00 0.00 16 1015.0
20260502023733 21 305 3.2 9.7 0.00 0.00 0.00 16 1014.9
20260502023232 21 331 4.8 14.5 0.00 0.00 0.00 16 1014.8
20260502022731 21 327 3.2 14.5 0.00 0.00 0.00 16 1014.7
20260502022229 21 314 3.2 11.3 0.00 0.00 0.00 16 1014.6
20260502021732 21 299 4.8 11.3 0.00 0.00 0.00 15 1014.4
20260502020728 21 292 0.0 6.4 0.00 0.00 0.00 15 1014.2
20260502020229 22 327 0.0 3.2 0.00 0.00 0.00 15 1014.0
20260502015227 22 319 0.0 0.0 0.00 0.00 0.00 14 1013.8
20260502014228 22 319 0.0 0.0 0.00 0.00 0.00 14 1013.8
20260502013226 23 322 0.0 3.2 0.00 0.00 0.00 13 1013.7
20260502012723 23 322 1.6 3.2 0.00 0.00 0.00 14 1013.7
20260502012226 23 322 1.6 6.4 0.00 0.00 0.00 14 1013.5
20260502011216 23 331 1.6 6.4 0.00 0.00 0.00 13 1013.7
20260502010715 23 338 1.6 4.8 0.00 0.00 0.00 13 1013.5
20260502010213 23 335 1.6 6.4 0.00 0.00 0.00 13 1013.5
20260502005713 23 334 3.2 11.3 0.00 0.00 0.00 13 1013.5
20260502005212 23 17 3.2 11.3 0.00 0.00 0.00 13 1013.5
20260502004213 24 348 0.0 6.4 0.00 0.00 0.00 12 1013.4
20260502003713 24 285 0.0 0.0 0.00 0.00 0.00 12 1013.4
20260502003211 24 263 0.0 1.6 0.00 0.00 0.00 12 1013.4
20260502002711 24 283 0.0 4.8 0.00 0.00 0.00 12 1013.5
20260502000709 25 245 4.8 9.7 0.00 0.00 0.00 12 1013.4
20260502000207 25 299 4.8 9.7 0.00 0.00 0.00 12 1013.4
20260501235704 25 290 4.8 9.7 0.00 0.00 0.00 12 1013.4
20260501235204 25 342 3.2 9.7 0.00 0.00 0.00 12 1013.4
20260501234208 25 318 1.6 4.8 0.00 0.00 0.00 12 1013.4
20260501233702 25 298 1.6 6.4 0.00 0.00 0.00 12 1013.4
20260501233201 25 315 1.6 6.4 0.00 0.00 0.00 11 1013.4
20260501232659 25 234 3.2 11.3 0.00 0.00 0.00 11 1013.4
20260501231659 25 270 3.2 9.7 0.00 0.00 0.00 11 1013.4
20260501231157 25 246 4.8 9.7 0.00 0.00 0.00 11 1013.4
20260501230656 25 275 4.8 14.5 0.00 0.00 0.00 10 1013.4
20260501230157 26 279 3.2 14.5 0.00 0.00 0.00 11 1013.4
20260501225655 26 191 3.2 6.4 0.00 0.00 0.00 10 1013.4
20260501225155 26 246 1.6 6.4 0.00 0.00 0.00 11 1013.4
20260501224657 25 304 1.6 8.0 0.00 0.00 0.00 12 1013.4
20260501223655 25 251 1.6 14.5 0.00 0.00 0.00 11 1013.5
20260501223154 25 232 3.2 14.5 0.00 0.00 0.00 10 1013.7
20260501222654 25 173 3.2 9.7 0.00 0.00 0.00 11 1013.7
20260501222153 26 252 3.2 8.0 0.00 0.00 0.00 9 1013.7
20260501221653 26 118 1.6 4.8 0.00 0.00 0.00 10 1013.5
20260501221152 26 307 3.2 16.1 0.00 0.00 0.00 10 1013.8
20260501220652 27 336 4.8 16.1 0.00 0.00 0.00 9 1013.8
20260501220153 26 290 3.2 11.3 0.00 0.00 0.00 10 1013.8
20260501215653 26 259 3.2 9.7 0.00 0.00 0.00 10 1013.8
20260501215152 26 235 3.2 8.0 0.00 0.00 0.00 10 1013.8
20260501214653 26 138 3.2 6.4 0.00 0.00 0.00 11 1014.0
20260501213652 27 182 1.6 8.0 0.00 0.00 0.00 11 1014.1
20260501212652 26 250 1.6 4.8 0.00 0.00 0.00 13 1014.2
20260501212152 26 122 1.6 6.4 0.00 0.00 0.00 11 1014.3
20260501211651 26 117 1.6 6.4 0.00 0.00 0.00 11 1014.4
20260501211151 26 183 3.2 9.7 0.00 0.00 0.00 12 1014.4
20260501205151 24 329 1.6 6.4 0.00 0.00 0.00 13 1014.7
20260501204650 25 349 0.0 6.4 0.00 0.00 0.00 14 1014.7
20260501204151 25 345 0.0 3.2 0.00 0.00 0.00 12 1014.7
20260501203651 26 254 0.0 3.2 0.00 0.00 0.00 12 1014.7
20260501203149 26 119 1.6 4.8 0.00 0.00 0.00 12 1014.9
20260501202149 25 97 1.6 4.8 0.00 0.00 0.00 11 1014.9
20260501201649 25 55 1.6 4.8 0.00 0.00 0.00 12 1014.9
20260501201149 25 355 0.0 3.2 0.00 0.00 0.00 12 1015.0
20260501200148 25 342 1.6 4.8 0.00 0.00 0.00 12 1015.1
20260501195647 25 346 3.2 6.4 0.00 0.00 0.00 11 1015.1
20260501194640 25 311 1.6 8.0 0.00 0.00 0.00 11 1015.2
20260501194141 26 57 3.2 9.7 0.00 0.00 0.00 11 1015.2
20260501193638 26 351 3.2 9.7 0.00 0.00 0.00 12 1015.2
20260501193139 26 330 3.2 8.0 0.00 0.00 0.00 11 1015.4
20260501192637 26 32 1.6 8.0 0.00 0.00 0.00 13 1015.5
20260501192137 26 34 1.6 6.4 0.00 0.00 0.00 12 1015.6
20260501191636 26 90 3.2 8.0 0.00 0.00 0.00 11 1015.6
20260501191135 25 85 3.2 8.0 0.00 0.00 0.00 12 1015.6
20260501190135 25 124 3.2 8.0 0.00 0.00 0.00 12 1015.7
20260501185634 25 336 3.2 8.0 0.00 0.00 0.00 12 1015.7
20260501184630 26 33 1.6 6.4 0.00 0.00 0.00 11 1015.9
20260501184131 26 321 1.6 6.4 0.00 0.00 0.00 11 1015.9
20260501183631 25 149 1.6 4.8 0.00 0.00 0.00 14 1016.0
20260501183130 24 79 1.6 4.8 0.00 0.00 0.00 12 1016.2
20260501182629 24 91 1.6 4.8 0.00 0.00 0.00 12 1016.4
20260501182125 25 43 1.6 4.8 0.00 0.00 0.00 11 1016.4
20260501181625 25 109 1.6 6.4 0.00 0.00 0.00 11 1016.4
20260501181124 25 115 3.2 9.7 0.00 0.00 0.00 13 1016.5
20260501180622 24 99 1.6 9.7 0.00 0.00 0.00 13 1016.6
20260501180123 24 166 1.6 6.4 0.00 0.00 0.00 12 1016.6
20260501175623 24 103 1.6 4.8 0.00 0.00 0.00 13 1016.7
20260501174622 24 26 1.6 4.8 0.00 0.00 0.00 12 1016.7
20260501174122 24 69 1.6 4.8 0.00 0.00 0.00 14 1016.7
20260501173623 23 355 1.6 4.8 0.00 0.00 0.00 14 1016.7
20260501173123 23 0 1.6 4.8 0.00 0.00 0.00 15 1016.7
20260501172622 23 347 0.0 4.8 0.00 0.00 0.00 14 1016.7
20260501172123 23 64 1.6 4.8 0.00 0.00 0.00 14 1016.7
20260501170622 22 342 3.2 6.4 0.00 0.00 0.00 15 1016.7
20260501170122 22 188 1.6 4.8 0.00 0.00 0.00 14 1016.7
20260501165623 23 184 0.0 4.8 0.00 0.00 0.00 16 1016.7
20260501164123 22 56 0.0 3.2 0.00 0.00 0.00 15 1016.8
20260501163623 22 59 1.6 3.2 0.00 0.00 0.00 18 1016.8
20260501162622 22 163 1.6 3.2 0.00 0.00 0.00 17 1016.8
20260501162122 22 118 1.6 3.2 0.00 0.00 0.00 19 1016.8
20260501160622 21 86 0.0 1.6 0.00 0.00 0.00 18 1016.7
20260501160123 21 355 0.0 4.8 0.00 0.00 0.00 19 1016.7
20260501155623 21 327 1.6 8.0 0.00 0.00 0.00 18 1016.6
20260501153623 20 62 1.6 4.8 0.00 0.00 0.00 23 1016.6
20260501152122 19 342 0.0 4.8 0.00 0.00 0.00 24 1016.5
20260501151623 20 333 0.0 3.2 0.00 0.00 0.00 25 1016.5
20260501151123 20 336 0.0 1.6 0.00 0.00 0.00 24 1016.4
20260501150123 19 348 0.0 0.0 0.00 0.00 0.00 27 1016.5
20260501145622 18 348 0.0 0.0 0.00 0.00 0.00 28 1016.4
20260501144622 18 348 0.0 0.0 0.00 0.00 0.00 27 1016.4
20260501144123 18 348 0.0 0.0 0.00 0.00 0.00 29 1016.4
20260501142123 17 346 0.0 0.0 0.00 0.00 0.00 31 1016.2